Luverne, MN

1:34 PM CDT on September 18, 2019 (GMT -0500)
Luverne

Weather History for KLYV - August, 2019

Change the Weather History Date:

Tuesday, August 20, 2019

  Actual Average (KPQN) Record (KPQN)
Temperature  
Mean Temperature 75 °F -  
Max Temperature 84 °F 77 °F 87 °F (2003)
Min Temperature 66 °F 57 °F 46 °F (2015)
Cooling Degree Days 10    
Growing Degree Days 25 (Base 50)    
Moisture  
Dew Point 66 °F    
Average Humidity 76    
Maximum Humidity 88    
Minimum Humidity 55    
Precipitation  
Precipitation 0.00 in - - ()
Sea Level Pressure  
Sea Level Pressure 29.98 in    
Wind  
Wind Speed 5 mph (ESE)    
Max Wind Speed 10 mph    
Max Gust Speed 17 mph    
Visibility 10 miles    
Events      
Averages and records for this station are not official NWS values.
T = Trace of Precipitation, MM = Missing Value Source: NWS Daily Summary

Daily Weather History Graph

Daily Weather History Graph

Search for Another Location

Airport or City:

Astronomy

Aug. 20, 2019 Rise Set
Actual Time 6:34 AM CDT 8:20 PM CDT
Civil Twilight 6:04 AM CDT 8:51 PM CDT
Nautical Twilight 5:27 AM CDT 9:28 PM CDT
Astronomical Twilight 4:46 AM CDT 10:08 PM CDT
Moon 11:00 PM CDT (8/20) 11:22 AM CDT (8/20)
Length of Visible Light 14h 46m
Length of Day
13h 45m
Waning Gibbous, 77% of the Moon is Illuminated
Aug 20
Waning Gibbous
Aug 23
Last Quarter
Aug 30
New
Sep 5
First Quarter
Sep 13
Full

Hourly Weather History & Observations

Time (CDT) Temp. Heat Index Dew Point Humidity Pressure Visibility Wind Dir Wind Speed Gust Speed Precip Events Conditions
12:16 AM 71.6 °F - 66.2 °F 83% 29.97 in 10.0 mi SSE 6.9 mph - N/A   Clear
12:39 AM 71.6 °F - 64.4 °F 78% 29.95 in 10.0 mi SSE 6.9 mph - N/A   Clear
12:57 AM 69.8 °F - 64.4 °F 83% 29.94 in 10.0 mi SSE 6.9 mph - N/A   Clear
1:16 AM 69.8 °F - 64.4 °F 83% 29.94 in 10.0 mi SSE 6.9 mph - N/A   Scattered Clouds
1:36 AM 69.8 °F - 64.4 °F 83% 29.93 in 10.0 mi SSE 6.9 mph - N/A   Scattered Clouds
1:55 AM 69.8 °F - 66.2 °F 88% 29.92 in 10.0 mi SSE 3.5 mph - N/A   Scattered Clouds
1:59 AM 69.8 °F - 66.2 °F 88% 29.92 in 10.0 mi SSE 4.6 mph - N/A   Scattered Clouds
2:16 AM 71.6 °F - 66.2 °F 83% 29.91 in 10.0 mi SE 4.6 mph - N/A   Mostly Cloudy
2:36 AM 69.8 °F - 66.2 °F 88% 29.91 in 10.0 mi Calm Calm - N/A   Mostly Cloudy
2:55 AM 69.8 °F - 66.2 °F 88% 29.89 in 10.0 mi SE 4.6 mph - N/A   Mostly Cloudy
3:00 AM 69.8 °F - 66.2 °F 88% 29.88 in 10.0 mi SSE 4.6 mph - N/A   Mostly Cloudy
3:17 AM 69.8 °F - 66.2 °F 88% 29.88 in 10.0 mi SSE 4.6 mph - N/A   Overcast
3:35 AM 69.8 °F - 66.2 °F 88% 29.89 in 10.0 mi Calm Calm - N/A   Overcast
3:55 AM 71.6 °F - 66.2 °F 83% 29.89 in 10.0 mi SSE 4.6 mph - N/A   Overcast
4:15 AM 71.6 °F - 66.2 °F 83% 29.89 in 10.0 mi SE 4.6 mph - N/A   Overcast
4:19 AM 71.6 °F - 66.2 °F 83% 29.89 in 10.0 mi SE 6.9 mph - N/A   Overcast
4:38 AM 71.6 °F - 66.2 °F 83% 29.89 in 10.0 mi Calm Calm - N/A   Overcast
4:55 AM 71.6 °F - 66.2 °F 83% 29.89 in 10.0 mi Calm Calm - N/A   Overcast
5:15 AM 69.8 °F - 66.2 °F 88% 29.88 in 10.0 mi SE 3.5 mph - N/A   Overcast
5:16 AM 69.8 °F - 66.2 °F 88% 29.88 in 10.0 mi SE 3.5 mph - N/A   Overcast
5:36 AM 69.8 °F - 66.2 °F 88% 29.88 in 10.0 mi Calm Calm - N/A   Overcast
6:17 AM 69.8 °F - 66.2 °F 88% 29.90 in 10.0 mi SSE 9.2 mph - N/A   Overcast
6:35 AM 69.8 °F - 62.6 °F 78% 29.90 in 10.0 mi SSE 5.8 mph - N/A   Overcast
6:56 AM 68.0 °F - 62.6 °F 83% 29.92 in 10.0 mi South 4.6 mph - N/A   Overcast
7:15 AM 68.0 °F - 62.6 °F 83% 29.92 in 10.0 mi South 5.8 mph - N/A   Overcast
7:20 AM 68.0 °F - 62.6 °F 83% 29.93 in 10.0 mi South 5.8 mph - N/A   Overcast
7:37 AM 69.8 °F - 64.4 °F 83% 29.94 in 10.0 mi SSW 3.5 mph - N/A   Overcast
7:56 AM 69.8 °F - 64.4 °F 83% 29.95 in 10.0 mi SSW 4.6 mph - N/A   Mostly Cloudy
8:16 AM 69.8 °F - 64.4 °F 83% 29.95 in 10.0 mi SW 5.8 mph - N/A   Mostly Cloudy
8:35 AM 69.8 °F - 64.4 °F 83% 29.97 in 10.0 mi SSE 4.6 mph - N/A   Overcast
8:39 AM 69.8 °F - 64.4 °F 83% 29.98 in 10.0 mi SSE 3.5 mph - N/A   Overcast
8:58 AM 69.8 °F - 64.4 °F 83% 29.99 in 10.0 mi SE 8.1 mph - N/A   Overcast
9:15 AM 71.6 °F - 64.4 °F 78% 29.99 in 10.0 mi SSE 9.2 mph - N/A   Overcast
9:36 AM 71.6 °F - 64.4 °F 78% 30.00 in 10.0 mi SE 8.1 mph - N/A   Overcast
9:55 AM 71.6 °F - 62.6 °F 73% 29.99 in 10.0 mi SSE 8.1 mph - N/A   Overcast
10:18 AM 73.4 °F - 64.4 °F 73% 29.99 in 10.0 mi South 8.1 mph - N/A   Overcast
10:36 AM 73.4 °F - 64.4 °F 73% 29.99 in 10.0 mi South 10.4 mph - N/A   Mostly Cloudy
10:55 AM 73.4 °F - 64.4 °F 73% 29.99 in 10.0 mi SSE 4.6 mph - N/A   Overcast
11:16 AM 75.2 °F - 66.2 °F 73% 29.99 in 10.0 mi SSW 8.1 mph - N/A   Overcast
11:36 AM 75.2 °F - 66.2 °F 73% 29.99 in 10.0 mi South 3.5 mph - N/A   Overcast
11:55 AM 77.0 °F - 68.0 °F 74% 29.98 in 10.0 mi SSW 4.6 mph - N/A   Scattered Clouds
12:16 PM 77.0 °F - 68.0 °F 74% 29.98 in 10.0 mi West 4.6 mph - N/A   Clear
12:36 PM 78.8 °F - 69.8 °F 74% 29.97 in 10.0 mi NW 3.5 mph - N/A   Clear
12:56 PM 80.6 °F 83.9 °F 69.8 °F 70% 29.99 in 10.0 mi NW 6.9 mph - N/A   Clear
1:15 PM 80.6 °F 83.9 °F 69.8 °F 70% 29.99 in 10.0 mi NNW 5.8 mph - N/A   Clear
1:37 PM 80.6 °F 83.9 °F 69.8 °F 70% 30.00 in 10.0 mi North 3.5 mph - N/A   Scattered Clouds
1:56 PM 82.4 °F 86.3 °F 69.8 °F 66% 30.00 in 10.0 mi Calm Calm - N/A   Mostly Cloudy
2:16 PM 82.4 °F 86.3 °F 69.8 °F 66% 30.01 in 10.0 mi NE 3.5 mph - N/A   Scattered Clouds
2:39 PM 82.4 °F 86.3 °F 69.8 °F 66% 30.01 in 10.0 mi NNE 5.8 mph - N/A   Scattered Clouds
2:56 PM 82.4 °F 85.4 °F 68.0 °F 62% 30.00 in 10.0 mi NNE 5.8 mph - N/A   Scattered Clouds
3:16 PM 84.2 °F 87.3 °F 68.0 °F 58% 30.00 in 10.0 mi ENE 5.8 mph - N/A   Clear
3:35 PM 84.2 °F 87.3 °F 68.0 °F 58% 29.99 in 10.0 mi East 4.6 mph - N/A   Clear
3:55 PM 84.2 °F 86.6 °F 66.2 °F 55% 29.99 in 10.0 mi Calm Calm - N/A   Clear
3:59 PM 84.2 °F 86.6 °F 66.2 °F 55% 29.99 in 10.0 mi Calm Calm - N/A   Clear
4:18 PM 84.2 °F 87.3 °F 68.0 °F 58% 29.99 in 10.0 mi Calm Calm - N/A   Clear
4:35 PM 84.2 °F 87.3 °F 68.0 °F 58% 29.99 in 10.0 mi Calm Calm - N/A   Clear
4:56 PM 82.4 °F 85.4 °F 68.0 °F 62% 30.00 in 10.0 mi Calm Calm - N/A   Scattered Clouds
5:16 PM 82.4 °F 86.3 °F 69.8 °F 66% 29.99 in 10.0 mi NW 3.5 mph - N/A   Scattered Clouds
5:38 PM 82.4 °F 86.3 °F 69.8 °F 66% 30.01 in 10.0 mi West 3.5 mph - N/A   Clear
5:57 PM 84.2 °F 87.3 °F 68.0 °F 58% 30.00 in 10.0 mi WNW 3.5 mph - N/A   Scattered Clouds
6:16 PM 84.2 °F 88.4 °F 69.8 °F 62% 30.01 in 10.0 mi WNW 6.9 mph - N/A   Scattered Clouds
6:35 PM 82.4 °F 86.3 °F 69.8 °F 66% 30.02 in 10.0 mi NNW 8.1 mph - N/A   Mostly Cloudy
6:36 PM 82.4 °F 86.3 °F 69.8 °F 66% 30.02 in 10.0 mi NNW 8.1 mph - N/A   Mostly Cloudy
6:55 PM 80.6 °F 83.2 °F 68.0 °F 65% 30.02 in 10.0 mi NNW 5.8 mph - N/A   Scattered Clouds
6:59 PM 80.6 °F 83.2 °F 68.0 °F 65% 30.02 in 10.0 mi NNW 6.9 mph - N/A   Scattered Clouds
7:16 PM 80.6 °F 83.2 °F 68.0 °F 65% 30.01 in 10.0 mi NNW 4.6 mph - N/A   Clear
7:36 PM 78.8 °F - 68.0 °F 69% 30.02 in 10.0 mi NNW 5.8 mph - N/A   Clear
7:55 PM 77.0 °F - 66.2 °F 69% 30.02 in 10.0 mi North 5.8 mph - N/A   Clear
7:56 PM 77.0 °F - 66.2 °F 69% 30.02 in 10.0 mi North 5.8 mph - N/A   Clear
8:15 PM 77.0 °F - 68.0 °F 74% 30.02 in 10.0 mi North 4.6 mph - N/A   Clear
8:19 PM 77.0 °F - 66.2 °F 69% 30.02 in 10.0 mi NNW 4.6 mph - N/A   Clear
8:37 PM 75.2 °F - 68.0 °F 78% 30.02 in 10.0 mi North 5.8 mph - N/A   Clear
8:56 PM 73.4 °F - 66.2 °F 78% 30.02 in 10.0 mi North 6.9 mph - N/A   Clear
9:16 PM 73.4 °F - 64.4 °F 73% 30.03 in 10.0 mi North 5.8 mph - N/A   Clear
9:36 PM 73.4 °F - 64.4 °F 73% 30.04 in 10.0 mi North 5.8 mph - N/A   Clear
9:58 PM 71.6 °F - 64.4 °F 78% 30.05 in 10.0 mi North 6.9 mph - N/A   Clear
10:16 PM 71.6 °F - 64.4 °F 78% 30.06 in 10.0 mi NNE 5.8 mph - N/A   Clear
10:36 PM 69.8 °F - 62.6 °F 78% 30.07 in 10.0 mi NNE 9.2 mph 17.3 mph N/A   Clear
10:56 PM 68.0 °F - 62.6 °F 83% 30.07 in 10.0 mi NNE 9.2 mph - N/A   Clear
11:15 PM 68.0 °F - 62.6 °F 83% 30.07 in 10.0 mi NNE 6.9 mph - N/A   Clear
11:19 PM 68.0 °F - 62.6 °F 83% 30.07 in 10.0 mi NNE 6.9 mph - N/A   Clear
11:38 PM 66.2 °F - 62.6 °F 88% 30.08 in 10.0 mi NNE 6.9 mph - N/A   Clear
11:55 PM 66.2 °F - 62.6 °F 88% 30.09 in 10.0 mi NNE 8.1 mph - N/A   Clear